DELTA 1 DEB *, 8791

Orbit data source: Space-Track

DELTA 1 DEB *, 8791 is space debris in SSO originally from a launch on Sun, 02 Oct 1966 UTC launched from the Air Force Western Test Range (AFWTR). Debris objects in space refer to the collection of defunct objects orbiting the Earth. Examples of debris include non-operational satellites, rocket bodies, and fragments generated from explosions, collisions, or faulty payload assembly.

Loading next visibility...
Identifier
8791, 1966-087F
Orbit
SSO
Country
Flag of USUS
Related business
Manufacturer
Unknown
Mission
Spacecraft
Bus & Motor
Unknown
Mass
Unknown
Launch date (UTC)
1966-10-02 (60 years ago)
Launch vehicle
Unknown
Launch site
Air Force Western Test Range (AFWTR)
Object type
Payload
Rocket body
Debris
Shape & HBR
Unknown shape, 0.1 m
Radar Cross Section
Medium (>0.1 m² and <1 m²)

Expand to show TLE details & history
Last TLE update: 2 days ago

TLE from 2 days ago
0 DELTA 1 DEB *
1 08791U 66087F   26149.41127375  .00000083  00000-0  68277-3 0  9998
2 08791 101.6481 129.9798 0135940 238.1836 279.4018 12.63921433742037
Epoch: 2026-05-29T09:52Z
TLE epoch observation values (Epoch: 2026-05-29T09:52:14.051Z)
Latitude
23.45403°
Longitude
-79.91499°
Altitude
1,393.471 km
Speed
7.172 km/s
True Right ascension
21h 00m 20s
True Declination
23° 20' 20"
Sunlit
Object was in daylight at epoch
Visualization orbit readout
Latitude
Unknown
Longitude
Unknown
Altitude
Unknown
Speed
Unknown
Apparent Right ascension
Unknown
Apparent Declination
Unknown
Sunlit
N/A
Visualization observer readout
Local Sidereal Time
08:24:04
Azimuth
Unknown
Elevation
Unknown
Doppler factor
Unknown
Orbital elements
Apogee altitude
1,510.117 km
Perigee altitude
1,298.528 km
Semi-major axis
7,782.459 km
Eccentricity
0.01359
Inclination
101.6481°
RAAN
129.9798°
Arg. of periapsis
238.1836°
True anomaly
277.86088°
Mean anomaly
279.4018°
Eccentric anomaly
278.63174°
Mean motion
3.16132 °/min
Orbital period
113.88 mins
BSTAR
0.00068277
Loading maneuver chart data...
Computing Atmospheric mass density...
Loading historical data...
Loading historical data...
Loading historical data...
Loading historical data...
Loading historical data...
Loading historical data...
Loading historical data...
Other satellites on launch #87 in the year 1966 (1966-10-02 UTC)

Documentation

Showing up to 5 results
|